Theta_e
345 335 338 336 338 339 342 341 338 337 336 335 335 336 334 327 328 330 332 335 338 338 337 334 335 337 334 331 332 334 333 332 332 331 328 331 332 334 335 334 334 333 334
346 336 337 336 337 339 344 342 339 338 337 335 336 336 335 329 328 330 334 336 338 341 340 336 338 338 335 335 336 335 332 328 329 330 330 331 330 334 335 333 332 333 330
346 339 337 336 337 339 342 343 340 339 338 336 336 337 336 331 328 328 334 338 339 341 339 337 339 340 335 335 336 334 331 328 328 332 334 334 333 333 333 333 332 332 332
347 342 339 335 336 338 341 342 341 340 339 338 338 338 336 332 328 327 331 335 338 340 338 333 338 338 336 335 335 334 331 328 326 327 331 334 335 334 332 332 332 332 331
347 344 343 335 335 337 339 342 341 340 340 339 338 339 336 332 327 323 324 326 331 336 337 337 338 338 337 335 335 334 331 325 325 327 330 331 333 331 330 331 332 333 334
345 345 343 335 333 335 336 339 341 341 341 339 339 339 336 332 326 323 323 326 331 336 337 337 336 336 333 334 334 334 332 326 327 326 328 329 330 329 330 329 329 331 331
345 346 344 336 333 332 336 337 339 341 340 338 339 339 336 331 325 324 325 327 331 334 336 336 335 336 334 333 334 333 332 326 327 327 327 329 328 328 328 327 327 328 330
347 346 343 338 333 331 331 335 337 338 338 339 339 337 334 328 324 324 326 330 333 334 335 336 335 333 332 333 333 333 333 326 325 325 329 328 324 325 326 326 326 326 328
346 348 345 339 334 333 331 330 332 334 337 338 338 334 328 325 325 325 327 332 332 334 335 334 330 329 335 331 331 333 333 325 324 325 329 327 323 323 323 324 325 324 325
345 348 345 343 337 335 334 331 330 329 331 332 330 326 325 326 327 328 331 333 333 335 334 332 329 328 333 334 331 333 332 323 323 324 325 326 320 321 321 321 322 323 323
345 347 346 344 343 342 341 336 333 331 330 329 328 327 326 327 329 334 334 336 335 335 333 329 329 328 330 331 331 333 330 322 322 323 327 325 323 322 321 320 320 321 321
347 345 347 344 341 344 343 342 337 335 333 331 331 330 329 331 335 336 336 335 336 336 334 328 330 329 327 328 331 332 329 323 324 324 325 324 319 321 320 318 318 318 318
348 346 345 345 344 341 344 343 341 340 338 337 336 335 333 334 334 337 338 338 337 335 334 328 330 328 326 330 329 329 328 323 324 324 324 322 318 320 319 318 317 317 316
348 347 346 345 344 343 341 345 343 340 340 338 337 336 337 333 335 337 336 335 336 334 334 330 330 328 328 329 330 327 326 323 323 323 322 321 319 319 319 318 317 316 316
335 343 347 345 344 344 341 341 343 342 342 340 339 337 336 337 334 338 338 338 336 334 334 331 331 330 328 329 329 327 325 324 322 323 323 322 319 318 319 318 317 316 315
334 334 339 346 345 344 341 340 342 339 340 340 339 339 336 338 337 339 336 338 338 337 335 332 330 331 329 328 327 326 325 324 323 322 323 321 318 317 318 318 317 316 315
342 337 338 346 345 344 342 341 340 340 339 339 339 338 339 338 338 338 337 337 337 335 335 333 331 329 328 326 325 326 325 323 322 320 322 321 317 316 317 317 317 316 315
342 344 344 344 345 343 342 342 341 339 339 340 339 339 339 338 336 334 337 337 334 333 335 336 331 328 327 326 324 324 323 322 321 320 321 320 318 316 315 316 316 315 315
334 337 341 341 341 341 339 340 340 339 339 339 339 338 338 339 337 335 336 336 336 335 335 335 333 329 327 326 323 321 321 321 321 320 319 320 318 316 315 315 314 314 314
327 329 331 334 336 340 341 341 340 339 337 338 338 338 338 337 337 337 335 334 334 335 335 334 334 329 326 324 322 320 320 320 319 319 319 319 319 316 315 314 313 313 313
322 323 324 325 325 326 332 336 337 337 336 335 334 336 337 337 336 336 335 334 334 333 334 334 334 330 325 323 320 319 318 318 318 318 318 317 319 317 316 314 313 312 311
320 320 320 321 321 322 322 323 328 330 334 334 335 334 335 335 336 335 335 335 334 333 334 334 333 328 324 322 320 318 317 318 317 317 316 317 318 318 317 315 314 312 310
317 317 317 318 318 319 319 320 321 321 326 329 330 328 330 332 333 334 334 334 334 333 333 332 332 329 324 322 320 319 317 317 315 315 316 316 316 318 317 315 313 311 311
316 316 316 316 315 316 317 318 318 319 321 321 320 321 323 324 325 326 327 329 332 332 332 330 332 330 324 323 321 319 320 316 316 314 314 314 315 316 317 315 312 311 311
315 314 314 315 315 314 313 315 316 317 318 318 318 319 320 320 321 321 323 326 327 327 327 329 330 329 328 324 322 321 319 319 317 314 313 313 314 315 316 315 313 311 311
313 312 312 312 311 311 312 313 314 316 317 317 317 317 318 318 317 319 320 321 321 321 322 322 323 325 326 324 323 321 320 318 318 316 312 312 312 313 315 315 313 312 311
Wind_Speed
19 27 23 21 18 16 18 19 20 19 19 17 15 13 12 12 13 13 13 13 13 12 11 11 11 9 8 11 11 11 11 10 9 9 10 12 12 12 12 12 11 13 14
21 27 24 21 18 17 17 19 19 18 17 17 15 14 12 11 11 11 11 12 11 10 10 11 11 8 8 10 10 10 10 11 9 10 13 13 10 9 12 10 7 13 12
19 23 25 21 18 17 17 18 19 18 16 15 15 15 12 11 10 10 10 10 9 10 9 9 9 7 8 9 8 8 9 8 8 9 8 10 9 7 6 7 11 12 11
20 20 22 22 19 18 17 18 18 17 16 16 15 13 13 11 9 9 9 8 7 8 8 8 8 6 6 8 8 7 6 6 4 2 2 9 10 9 8 7 9 9 8
19 19 19 24 20 18 18 18 17 16 15 15 14 13 12 10 10 9 9 9 8 7 7 8 9 7 7 7 7 5 4 6 3 5 4 7 10 8 8 8 7 7 7
16 19 18 25 23 20 19 19 19 17 17 16 15 13 12 11 10 10 10 9 8 7 7 7 7 8 8 8 6 4 2 2 1 5 7 6 8 7 9 6 6 5 7
17 18 21 25 24 21 19 19 20 19 18 18 16 15 14 13 12 12 12 11 9 8 7 6 8 9 9 9 7 5 3 2 5 4 5 5 1 6 8 7 5 5 7
17 17 21 23 24 22 21 19 18 18 18 17 16 16 15 14 15 14 14 13 11 9 9 10 10 9 10 10 9 7 5 3 2 1 11 6 3 5 6 8 6 3 6
15 16 15 23 25 23 21 20 19 18 18 17 17 16 15 15 15 16 16 14 12 11 11 11 10 11 11 11 11 9 7 5 4 3 5 6 3 5 4 6 8 4 4
13 15 14 19 25 24 22 20 18 17 16 16 16 16 16 15 14 15 15 14 12 14 12 11 10 12 12 12 9 10 8 7 4 5 5 6 2 6 4 3 5 7 4
12 12 12 17 18 17 16 19 19 17 16 15 15 16 16 16 16 14 16 15 16 15 12 11 11 12 13 14 10 11 10 10 7 4 9 7 2 10 6 5 4 4 5
20 18 15 17 18 20 18 18 21 20 20 20 18 18 18 15 16 16 15 16 16 17 13 12 12 13 13 12 14 14 13 11 9 3 9 7 4 11 7 5 5 5 4
24 21 19 16 15 18 18 21 18 20 19 18 18 18 18 18 19 20 18 21 20 18 15 15 16 16 15 15 13 17 17 12 9 9 9 8 6 11 9 8 7 7 7
24 22 19 18 17 16 18 14 20 20 22 21 21 22 21 21 20 21 20 22 23 21 17 17 16 16 17 20 19 17 18 14 15 15 12 11 10 14 11 10 9 8 8
16 4 20 19 21 17 13 15 14 19 22 23 24 26 25 22 22 21 20 21 25 21 20 23 21 21 20 22 20 21 16 18 19 17 17 16 15 17 15 14 13 11 10
10 10 7 18 18 17 14 16 10 19 11 20 23 25 29 23 22 18 21 23 21 23 26 25 26 24 22 23 24 24 20 21 22 15 19 20 17 21 18 16 15 15 14
11 8 5 6 17 16 13 11 14 8 13 16 14 20 24 27 24 22 22 24 23 26 24 28 26 23 23 23 27 26 22 21 23 22 20 24 20 22 22 20 18 17 16
13 16 15 18 14 11 9 7 12 11 14 14 11 11 23 26 24 27 24 28 26 27 27 22 25 22 24 25 26 24 26 24 25 22 19 23 25 25 25 24 21 20 18
16 16 16 14 10 3 2 9 10 11 14 16 14 10 10 22 23 26 26 25 23 27 27 23 23 24 24 26 25 26 25 29 27 28 27 28 28 27 29 28 26 24 23
16 17 17 14 10 4 4 1 1 5 10 12 14 19 17 15 23 26 27 30 30 25 25 28 29 27 28 25 24 26 28 29 31 31 30 27 33 31 30 32 31 29 26
15 15 15 16 16 17 14 8 5 5 3 6 10 12 16 20 25 27 31 32 31 33 30 29 27 31 29 25 24 24 26 33 32 29 32 34 31 34 32 34 35 33 29
14 13 14 14 13 13 11 11 8 9 8 9 7 9 12 15 19 25 29 36 36 34 32 32 31 27 28 34 21 13 7 14 27 33 32 34 33 38 34 38 38 36 33
12 12 12 12 11 11 13 12 10 10 8 8 5 11 10 13 16 19 24 33 34 36 33 34 34 35 28 29 38 15 3 7 10 26 33 34 34 32 36 38 37 33 35
10 10 11 10 10 9 8 8 9 11 11 11 13 11 11 12 15 15 16 21 28 31 34 35 35 34 34 27 26 37 35 8 4 4 28 33 35 37 33 33 38 35 33
8 10 12 12 11 11 12 12 12 13 14 15 15 14 11 13 13 13 15 15 16 20 25 28 29 39 33 36 30 29 37 34 12 1 2 20 30 34 37 39 36 38 35
10 6 6 8 11 13 15 15 15 17 18 19 19 19 17 15 14 15 15 16 17 18 18 20 20 22 34 37 39 33 33 26 26 14 2 13 19 32 34 34 36 42 41
Wind_Direction
137 155 159 156 156 160 157 161 164 164 161 158 155 152 144 135 130 127 127 126 127 126 122 121 119 117 114 111 110 102 90 87 88 89 94 96 94 89 81 99 66 74 77
142 156 162 160 159 161 160 163 165 166 168 163 163 159 152 145 141 139 140 140 140 131 123 126 131 133 121 115 114 103 90 87 83 92 88 79 92 94 92 93 70 73 73
134 156 164 164 162 163 162 166 169 171 173 174 171 164 161 157 153 149 151 150 148 133 135 137 134 141 140 131 126 110 100 86 96 105 94 61 80 90 97 82 82 82 78
139 150 165 166 165 167 165 167 172 176 177 181 178 172 170 167 164 160 161 161 155 145 143 147 146 159 157 150 142 127 102 97 116 123 96 107 84 75 71 72 92 95 91
134 147 171 167 169 169 167 169 177 181 184 185 184 182 181 177 177 176 175 177 172 158 153 153 160 173 172 173 161 145 111 101 75 354 54 101 119 106 88 78 76 108 107
139 156 173 175 173 172 172 174 182 188 190 190 190 191 192 189 191 189 182 182 179 166 162 166 179 181 193 189 184 171 126 146 341 55 61 118 117 115 110 100 84 97 108
139 167 177 186 177 176 179 179 184 190 193 193 197 197 200 198 197 194 187 185 186 179 178 185 200 197 205 199 197 196 172 211 338 26 138 163 202 130 135 106 101 128 119
148 156 175 188 185 181 183 186 189 194 196 200 203 204 205 206 201 192 191 189 190 181 191 195 212 210 212 216 209 206 197 210 311 350 153 158 137 106 132 137 121 156 159
150 151 179 184 190 188 189 191 193 197 200 204 207 210 212 210 206 198 193 192 198 196 205 216 211 215 207 217 218 218 208 221 274 272 163 161 204 111 126 157 157 137 176
151 168 175 181 190 191 193 197 200 202 205 208 212 214 214 211 211 205 201 199 203 202 216 219 209 218 213 214 220 218 212 208 236 311 188 167 141 107 92 133 184 180 161
162 169 177 176 186 187 194 203 202 208 213 215 217 217 213 208 210 210 209 207 210 220 230 218 213 216 217 220 223 216 213 211 253 247 195 192 233 119 115 101 107 172 189
170 173 175 184 191 185 191 200 208 205 208 211 213 215 212 207 215 212 215 219 225 227 234 219 214 219 223 225 215 209 216 225 287 223 180 196 214 137 147 141 129 131 132
169 168 176 184 192 195 202 200 202 201 211 212 207 210 219 208 215 211 212 217 219 222 232 219 211 218 219 203 224 217 211 217 238 215 190 201 191 149 162 165 160 153 144
156 165 171 178 185 199 211 207 200 197 208 208 212 210 212 211 221 204 221 232 226 231 226 220 223 227 214 207 218 223 219 216 212 211 198 203 203 163 175 180 173 167 159
7 98 167 177 181 191 208 231 217 201 203 202 208 209 207 214 217 214 212 216 222 232 226 213 205 222 216 222 218 216 219 231 213 208 203 207 212 174 181 184 181 178 173
11 352 357 170 189 194 212 225 244 237 244 214 211 211 205 212 217 211 220 224 222 226 218 215 209 213 215 222 227 215 218 225 228 216 204 196 210 181 184 190 188 185 181
31 41 11 181 176 193 190 207 233 230 254 271 239 222 203 212 225 225 226 227 235 234 239 221 215 211 216 220 226 219 219 225 225 232 214 193 195 189 188 194 193 192 189
50 44 49 61 112 141 175 211 226 244 253 272 281 261 237 232 231 232 231 235 240 234 241 233 217 214 223 219 224 226 220 223 227 227 217 205 197 197 195 197 195 194 192
66 67 62 57 61 74 201 214 225 247 257 268 266 266 254 237 227 230 238 242 242 238 234 244 229 219 224 224 223 223 220 218 223 223 220 205 202 197 199 200 200 199 192
71 67 66 63 52 79 101 131 266 307 304 295 278 265 260 253 240 234 241 246 246 245 241 232 232 223 227 224 224 223 222 222 220 219 218 213 205 194 198 202 199 203 199
55 59 57 53 35 34 34 20 14 314 296 312 313 294 280 264 257 252 250 249 254 252 245 240 232 222 222 220 228 240 230 224 220 223 218 216 202 196 198 202 201 202 202
63 52 57 55 45 35 27 7 5 336 318 296 289 277 284 280 266 262 260 252 253 258 253 247 243 226 218 216 213 211 232 226 223 224 220 214 213 203 201 200 199 200 203
60 42 43 37 40 33 13 8 355 339 304 295 286 312 284 268 264 264 266 258 255 257 248 250 245 228 221 218 213 201 192 217 205 222 223 215 212 204 199 193 195 197 198
52 35 23 19 13 8 1 349 338 313 309 315 304 287 285 292 289 289 278 270 264 249 242 258 243 240 215 223 217 227 233 208 206 204 219 217 212 211 204 192 188 193 198
65 34 11 358 348 341 331 319 315 308 306 304 300 302 290 285 275 276 279 268 270 276 272 266 268 240 226 229 228 216 228 239 236 196 225 207 216 212 208 200 189 192 200
94 43 3 329 334 324 313 300 287 285 286 289 288 291 290 276 283 275 273 280 283 278 287 282 283 282 244 230 228 223 223 221 231 221 229 216 208 206 203 206 202 196 199